STARLINK-3075, 49409

Orbit data source: Space-Track

STARLINK-3075, 49409 is a payload satellite owned by SpaceX/Seattle (US) in LEO that was launched on Sat, 13 Nov 2021 UTC via an FALCON 9 launch vehicle from the Air Force Eastern Test Range (AFETR). Payload-class satellites include a variety of spacecraft equipped with specific instruments for various scientific and technological missions. These include communications satellites like Starlink; space stations such as the ISS; scientific satellites like the Hubble; Earth observation satellites from companies like Planet Labs, Umbra, and HawkEye 360; GPS; miniature CubeSats for education and research; and military/defense satellites.

Loading next visibility...
Identifier
49409, 2021-104B
Orbit
LEO
Country
Flag of USUS
Related business
Manufacturer
SpaceX/Seattle
Mission
Operational Commercial Communications
Bus & Motor
STARLINK, Unknown motor
Mass
290 kg wet, ~270 kg dry
Launch date (UTC)
2021-11-13 (5 years ago)
Launch vehicle
FALCON 9
Launch site
Air Force Eastern Test Range (AFETR)
Object type
Payload
Rocket body
Debris
Shape & HBR
Box + 1 Pan, 10.1 m
Radar Cross Section
13.562 m², Large (>1 m²)

Expand to show TLE details & history
Last TLE update: 1 week ago

TLE from 1 week ago
0 STARLINK-3075
1 49409U 21104B   26154.30883646 -.00007221  00000-0 -43598-3 0  9996
2 49409  53.1828 204.7433 0001515  52.5773 307.5357 15.08846409251563
Epoch: 2026-06-03T07:24Z
TLE epoch observation values (Epoch: 2026-06-03T07:24:43.470Z)
Latitude
0.00004°
Longitude
-158.20711°
Altitude
539.979 km
Speed
7.594 km/s
True Right ascension
13h 38m 58s
True Declination
0° 00' 00"
Sunlit
Object was in full shadow at epoch
Visualization orbit readout
Latitude
Unknown
Longitude
Unknown
Altitude
Unknown
Speed
Unknown
Apparent Right ascension
Unknown
Apparent Declination
Unknown
Sunlit
N/A
Visualization observer readout
Local Sidereal Time
13:20:20
Azimuth
Unknown
Elevation
Unknown
Doppler factor
Unknown
Orbital elements
Apogee altitude
541.022 km
Perigee altitude
538.926 km
Semi-major axis
6,918.111 km
Eccentricity
0.00015
Inclination
53.1828°
RAAN
204.7433°
Arg. of periapsis
52.5773°
True anomaly
307.52193°
Mean anomaly
307.5357°
Eccentric anomaly
307.52882°
Mean motion
3.77191 °/min
Orbital period
95.44 mins
BSTAR
-0.00043598
Loading maneuver chart data...
Computing Atmospheric mass density...
Loading historical data...
Loading historical data...
Loading historical data...
Loading historical data...
Loading historical data...
Loading historical data...
Loading historical data...

Documentation

Showing up to 5 results
|